Time,TemperatureF,DewpointF,PressureIn,WindDirection,WindDirectionDegrees,WindSpeedMPH,WindSpeedGustMPH,Humidity,HourlyPrecipIn,Conditions,Clouds,dailyrainin,SoftwareType,DateUTC
2013-02-25 00:02:00,25.0,22.0,30.13,SE,132,0.0,2.0,87,0.00,,,0.01,,2013-02-25 06:02:00,
2013-02-25 00:11:00,25.0,22.0,30.13,SE,132,0.0,2.0,87,0.00,,,0.01,,2013-02-25 06:11:00,
2013-02-25 00:21:00,26.0,23.0,30.12,SE,134,0.0,2.0,87,0.00,,,0.01,,2013-02-25 06:21:00,
2013-02-25 00:31:00,26.0,22.0,30.13,SE,134,0.0,2.0,85,0.00,,,0.01,,2013-02-25 06:31:00,
2013-02-25 00:42:00,26.0,22.0,30.13,SE,134,0.0,2.0,85,0.00,,,0.01,,2013-02-25 06:42:00,
2013-02-25 00:52:00,26.0,23.0,30.13,SE,134,0.0,2.0,87,0.00,,,0.01,,2013-02-25 06:52:00,
2013-02-25 01:01:00,26.0,22.0,30.13,SE,135,0.0,2.0,86,0.00,,,0.01,,2013-02-25 07:01:00,
2013-02-25 01:11:00,26.0,22.0,30.13,SE,135,0.0,1.0,86,0.00,,,0.01,,2013-02-25 07:11:00,
2013-02-25 01:21:00,26.0,22.0,30.13,SE,135,0.0,1.0,86,0.00,,,0.01,,2013-02-25 07:21:00,
2013-02-25 01:31:00,25.0,21.0,30.13,SE,135,0.0,1.0,86,0.00,,,0.01,,2013-02-25 07:31:00,
2013-02-25 01:41:00,25.0,21.0,30.13,SE,135,0.0,1.0,86,0.00,,,0.01,,2013-02-25 07:41:00,
2013-02-25 01:52:00,24.0,21.0,30.13,SE,135,0.0,1.0,87,0.00,,,0.01,,2013-02-25 07:52:00,
2013-02-25 02:01:00,24.0,21.0,30.13,SE,135,1.0,2.0,89,0.00,,,0.01,,2013-02-25 08:01:00,
2013-02-25 02:11:00,24.0,21.0,30.13,SE,135,1.0,2.0,89,0.00,,,0.01,,2013-02-25 08:11:00,
2013-02-25 02:21:00,25.0,22.0,30.12,SE,136,1.0,3.0,87,0.00,,,0.01,,2013-02-25 08:21:00,
2013-02-25 02:31:00,25.0,22.0,30.13,SE,137,1.0,3.0,87,0.00,,,0.01,,2013-02-25 08:31:00,
2013-02-25 02:41:00,25.0,22.0,30.13,SE,137,1.0,3.0,87,0.00,,,0.01,,2013-02-25 08:41:00,
2013-02-25 02:52:00,24.0,20.0,30.13,SE,136,1.0,2.0,86,0.00,,,0.01,,2013-02-25 08:52:00,
2013-02-25 03:01:00,23.0,20.0,30.12,SE,136,1.0,2.0,87,0.00,,,0.01,,2013-02-25 09:01:00,
2013-02-25 03:12:00,23.0,20.0,30.12,SE,136,1.0,2.0,87,0.00,,,0.01,,2013-02-25 09:12:00,
2013-02-25 03:21:00,23.0,20.0,30.11,SE,136,0.0,1.0,88,0.00,,,0.01,,2013-02-25 09:21:00,
2013-02-25 03:31:00,24.0,21.0,30.11,SE,138,0.0,2.0,89,0.00,,,0.01,,2013-02-25 09:31:00,
2013-02-25 03:41:00,24.0,21.0,30.11,SE,138,0.0,2.0,89,0.00,,,0.01,,2013-02-25 09:41:00,
2013-02-25 03:52:00,24.0,21.0,30.11,SE,140,1.0,2.0,88,0.00,,,0.01,,2013-02-25 09:52:00,
2013-02-25 04:01:00,24.0,21.0,30.12,SE,137,1.0,3.0,88,0.00,,,0.01,,2013-02-25 10:01:00,
2013-02-25 04:11:00,24.0,21.0,30.12,SE,137,1.0,3.0,88,0.00,,,0.01,,2013-02-25 10:11:00,
2013-02-25 04:21:00,24.0,21.0,30.12,SE,137,0.0,2.0,87,0.00,,,0.01,,2013-02-25 10:21:00,
2013-02-25 04:31:00,24.0,21.0,30.12,SE,139,0.0,2.0,88,0.00,,,0.01,,2013-02-25 10:31:00,
2013-02-25 04:42:00,24.0,21.0,30.12,SE,139,0.0,2.0,88,0.00,,,0.01,,2013-02-25 10:42:00,
2013-02-25 04:52:00,24.0,21.0,30.14,SE,139,0.0,2.0,87,0.00,,,0.01,,2013-02-25 10:52:00,
2013-02-25 05:01:00,24.0,21.0,30.13,SE,139,0.0,2.0,87,0.00,,,0.01,,2013-02-25 11:01:00,
2013-02-25 05:11:00,24.0,21.0,30.13,SE,139,0.0,2.0,87,0.00,,,0.01,,2013-02-25 11:11:00,
2013-02-25 05:21:00,25.0,22.0,30.14,SE,138,0.0,3.0,87,0.00,,,0.01,,2013-02-25 11:21:00,
2013-02-25 05:32:00,25.0,21.0,30.14,SE,140,0.0,2.0,86,0.00,,,0.01,,2013-02-25 11:32:00,
2013-02-25 05:42:00,25.0,21.0,30.14,SE,140,0.0,2.0,86,0.00,,,0.01,,2013-02-25 11:42:00,
2013-02-25 05:52:00,26.0,22.0,30.15,SE,139,0.0,2.0,86,0.00,,,0.01,,2013-02-25 11:52:00,
2013-02-25 06:02:00,26.0,22.0,30.13,SE,139,1.0,3.0,86,0.00,,,0.01,,2013-02-25 12:02:00,
2013-02-25 06:11:00,26.0,22.0,30.13,SE,139,1.0,3.0,86,0.00,,,0.01,,2013-02-25 12:11:00,
2013-02-25 06:21:00,26.0,23.0,30.13,SE,141,0.0,1.0,87,0.00,,,0.01,,2013-02-25 12:21:00,
2013-02-25 06:32:00,27.0,23.0,30.12,SE,130,0.0,3.0,86,0.00,,,0.01,,2013-02-25 12:32:00,
2013-02-25 06:42:00,27.0,23.0,30.12,SE,130,0.0,3.0,86,0.00,,,0.01,,2013-02-25 12:42:00,
2013-02-25 06:55:00,27.0,23.0,30.12,SE,134,1.0,5.0,85,0.00,,,0.01,,2013-02-25 12:55:00,
2013-02-25 07:02:00,27.0,23.0,30.12,ESE,111,2.0,7.0,85,0.00,,,0.01,,2013-02-25 13:02:00,
2013-02-25 07:12:00,27.0,23.0,30.12,ESE,111,2.0,7.0,85,0.00,,,0.01,,2013-02-25 13:12:00,
2013-02-25 07:22:00,27.0,23.0,30.12,SE,130,1.0,5.0,85,0.00,,,0.01,,2013-02-25 13:22:00,
2013-02-25 07:32:00,27.0,23.0,30.12,SE,128,3.0,7.0,86,0.00,,,0.01,,2013-02-25 13:32:00,
2013-02-25 07:42:00,27.0,23.0,30.12,SE,128,3.0,7.0,86,0.00,,,0.01,,2013-02-25 13:42:00,
2013-02-25 07:52:00,27.0,23.0,30.13,SE,132,3.0,5.0,86,0.00,,,0.01,,2013-02-25 13:52:00,
2013-02-25 08:03:00,28.0,24.0,30.13,ESE,122,2.0,6.0,85,0.00,,,0.01,,2013-02-25 14:03:00,
2013-02-25 08:17:00,28.0,24.0,30.13,ESE,122,2.0,6.0,85,0.00,,,0.01,,2013-02-25 14:17:00,
2013-02-25 08:32:00,31.0,26.0,30.13,SE,134,1.0,6.0,81,0.00,,,0.01,,2013-02-25 14:32:00,
2013-02-25 08:52:00,32.0,26.0,30.13,SE,124,3.0,7.0,79,0.00,,,0.01,,2013-02-25 14:52:00,
2013-02-25 09:02:00,33.0,27.0,30.13,SE,146,4.0,9.0,77,0.00,,,0.01,,2013-02-25 15:02:00,
2013-02-25 09:21:00,33.0,26.0,30.13,ESE,119,3.0,7.0,76,0.00,,,0.01,,2013-02-25 15:21:00,
2013-02-25 09:32:00,33.0,26.0,30.12,SE,146,5.0,12.0,76,0.00,,,0.01,,2013-02-25 15:32:00,
2013-02-25 09:41:00,33.0,26.0,30.12,SE,146,5.0,12.0,76,0.00,,,0.01,,2013-02-25 15:41:00,
2013-02-25 09:52:00,33.0,27.0,30.12,SE,142,3.0,8.0,77,0.00,,,0.01,,2013-02-25 15:52:00,
2013-02-25 10:02:00,34.0,27.0,30.12,SE,126,3.0,10.0,76,0.00,,,0.01,,2013-02-25 16:02:00,
2013-02-25 10:11:00,34.0,27.0,30.12,SE,126,3.0,10.0,76,0.00,,,0.01,,2013-02-25 16:11:00,
2013-02-25 10:21:00,34.0,27.0,30.11,ESE,109,4.0,8.0,76,0.00,,,0.01,,2013-02-25 16:21:00,
2013-02-25 10:32:00,35.0,28.0,30.12,SE,128,3.0,9.0,74,0.00,,,0.01,,2013-02-25 16:32:00,
2013-02-25 10:42:00,35.0,28.0,30.12,SE,128,3.0,9.0,74,0.00,,,0.01,,2013-02-25 16:42:00,
2013-02-25 10:52:00,36.0,28.0,30.12,SE,139,5.0,11.0,73,0.00,,,0.01,,2013-02-25 16:52:00,
2013-02-25 11:01:00,36.0,28.0,30.13,SE,127,3.0,10.0,73,0.00,,,0.01,,2013-02-25 17:01:00,
2013-02-25 11:11:00,36.0,28.0,30.13,SE,127,3.0,10.0,73,0.00,,,0.01,,2013-02-25 17:11:00,
2013-02-25 11:21:00,36.0,28.0,30.12,SSE,153,4.0,10.0,72,0.00,,,0.00,,2013-02-25 17:21:00,
2013-02-25 11:31:00,36.0,29.0,30.12,SE,142,3.0,11.0,74,0.00,,,0.00,,2013-02-25 17:31:00,
2013-02-25 11:41:00,36.0,29.0,30.12,SE,142,3.0,11.0,74,0.00,,,0.00,,2013-02-25 17:41:00,
2013-02-25 11:52:00,37.0,29.0,30.13,SE,145,3.0,9.0,74,0.00,,,0.00,,2013-02-25 17:52:00,
2013-02-25 12:01:00,37.0,29.0,30.12,SE,133,2.0,7.0,73,0.00,,,0.00,,2013-02-25 18:01:00,
2013-02-25 12:12:00,37.0,29.0,30.12,SE,133,2.0,7.0,73,0.00,,,0.00,,2013-02-25 18:12:00,
2013-02-25 12:21:00,38.0,30.0,30.10,ESE,119,4.0,8.0,72,0.00,,,0.00,,2013-02-25 18:21:00,
2013-02-25 12:32:00,37.0,28.0,30.10,ESE,115,5.0,9.0,71,0.00,,,0.00,,2013-02-25 18:32:00,
2013-02-25 12:41:00,37.0,28.0,30.10,ESE,115,5.0,9.0,71,0.00,,,0.00,,2013-02-25 18:41:00,
2013-02-25 12:52:00,38.0,29.0,30.09,SE,144,4.0,9.0,70,0.00,,,0.00,,2013-02-25 18:52:00,
2013-02-25 13:01:00,38.0,29.0,30.09,ESE,108,4.0,9.0,69,0.00,,,0.00,,2013-02-25 19:01:00,
2013-02-25 13:11:00,38.0,29.0,30.09,ESE,108,4.0,9.0,69,0.00,,,0.00,,2013-02-25 19:11:00,
2013-02-25 13:21:00,38.0,29.0,30.08,ESE,111,5.0,8.0,70,0.00,,,0.00,,2013-02-25 19:21:00,
2013-02-25 13:32:00,38.0,29.0,30.09,SE,126,4.0,8.0,70,0.00,,,0.00,,2013-02-25 19:32:00,
2013-02-25 13:42:00,38.0,29.0,30.09,SE,126,4.0,8.0,70,0.00,,,0.00,,2013-02-25 19:42:00,
2013-02-25 13:52:00,38.0,30.0,30.08,SE,143,2.0,8.0,72,0.00,,,0.00,,2013-02-25 19:52:00,
2013-02-25 14:01:00,38.0,29.0,30.07,ESE,118,5.0,10.0,71,0.00,,,0.00,,2013-02-25 20:01:00,
2013-02-25 14:11:00,38.0,29.0,30.07,ESE,118,5.0,10.0,71,0.00,,,0.00,,2013-02-25 20:11:00,
2013-02-25 14:21:00,38.0,29.0,30.07,ESE,119,3.0,8.0,71,0.00,,,0.00,,2013-02-25 20:21:00,
2013-02-25 14:31:00,39.0,30.0,30.06,SE,141,2.0,7.0,70,0.00,,,0.00,,2013-02-25 20:31:00,
2013-02-25 14:42:00,39.0,30.0,30.06,SE,141,2.0,7.0,70,0.00,,,0.00,,2013-02-25 20:42:00,
2013-02-25 14:52:00,39.0,30.0,30.07,ESE,123,4.0,8.0,69,0.00,,,0.00,,2013-02-25 20:52:00,
2013-02-25 15:01:00,39.0,30.0,30.07,SE,132,3.0,7.0,70,0.00,,,0.00,,2013-02-25 21:01:00,
2013-02-25 15:11:00,39.0,30.0,30.07,SE,132,3.0,7.0,70,0.00,,,0.00,,2013-02-25 21:11:00,
2013-02-25 15:21:00,39.0,30.0,30.05,SE,143,3.0,7.0,70,0.00,,,0.00,,2013-02-25 21:21:00,
2013-02-25 15:31:00,39.0,30.0,30.04,SE,128,3.0,8.0,71,0.00,,,0.00,,2013-02-25 21:31:00,
2013-02-25 15:42:00,39.0,30.0,30.04,SE,128,3.0,8.0,71,0.00,,,0.00,,2013-02-25 21:42:00,
2013-02-25 15:52:00,39.0,31.0,30.03,SE,132,4.0,8.0,72,0.00,,,0.00,,2013-02-25 21:52:00,
2013-02-25 16:01:00,39.0,31.0,30.03,SSE,148,2.0,6.0,73,0.00,,,0.00,,2013-02-25 22:01:00,
2013-02-25 16:11:00,39.0,31.0,30.03,SSE,148,2.0,6.0,73,0.00,,,0.00,,2013-02-25 22:11:00,
2013-02-25 16:21:00,38.0,30.0,30.02,East,86,1.0,5.0,74,0.00,,,0.00,,2013-02-25 22:21:00,
2013-02-25 16:32:00,38.0,31.0,30.02,SE,129,0.0,4.0,75,0.00,,,0.00,,2013-02-25 22:32:00,
2013-02-25 16:42:00,38.0,31.0,30.02,SE,129,0.0,4.0,75,0.00,,,0.00,,2013-02-25 22:42:00,
2013-02-25 16:52:00,37.0,30.0,30.02,SSE,158,2.0,6.0,76,0.00,,,0.00,,2013-02-25 22:52:00,
2013-02-25 17:01:00,37.0,30.0,30.02,SE,134,2.0,5.0,76,0.00,,,0.00,,2013-02-25 23:01:00,
2013-02-25 17:11:00,37.0,30.0,30.02,SE,134,2.0,5.0,76,0.00,,,0.00,,2013-02-25 23:11:00,
2013-02-25 17:22:00,37.0,30.0,30.02,ESE,123,2.0,8.0,75,0.00,,,0.00,,2013-02-25 23:22:00,
2013-02-25 17:31:00,37.0,30.0,30.01,South,169,2.0,7.0,76,0.00,,,0.00,,2013-02-25 23:31:00,
2013-02-25 17:41:00,37.0,30.0,30.01,South,169,2.0,7.0,76,0.00,,,0.00,,2013-02-25 23:41:00,
2013-02-25 17:52:00,36.0,29.0,30.01,SSE,161,2.0,5.0,77,0.00,,,0.00,,2013-02-25 23:52:00,
2013-02-25 18:01:00,36.0,30.0,30.01,SSE,160,2.0,6.0,78,0.00,,,0.00,,2013-02-26 00:01:00,
2013-02-25 18:12:00,36.0,30.0,30.01,SSE,160,2.0,6.0,78,0.00,,,0.00,,2013-02-26 00:12:00,
2013-02-25 18:22:00,36.0,30.0,29.99,SE,131,0.0,4.0,78,0.00,,,0.00,,2013-02-26 00:22:00,
2013-02-25 18:32:00,35.0,29.0,30.00,SE,131,0.0,4.0,79,0.00,,,0.00,,2013-02-26 00:32:00,
2013-02-25 18:42:00,35.0,29.0,30.00,SE,131,0.0,4.0,79,0.00,,,0.00,,2013-02-26 00:42:00,
2013-02-25 18:52:00,35.0,29.0,30.00,SE,140,0.0,5.0,78,0.00,,,0.00,,2013-02-26 00:52:00,
2013-02-25 19:02:00,35.0,29.0,29.99,ESE,119,1.0,4.0,79,0.00,,,0.00,,2013-02-26 01:02:00,
2013-02-25 19:11:00,35.0,29.0,29.99,ESE,119,1.0,4.0,79,0.00,,,0.00,,2013-02-26 01:11:00,
2013-02-25 19:21:00,35.0,29.0,29.99,ESE,108,0.0,4.0,79,0.00,,,0.00,,2013-02-26 01:21:00,
2013-02-25 19:31:00,34.0,29.0,29.98,SE,136,0.0,2.0,81,0.00,,,0.00,,2013-02-26 01:31:00,
2013-02-25 19:41:00,34.0,29.0,29.98,SE,136,0.0,2.0,81,0.00,,,0.00,,2013-02-26 01:41:00,
2013-02-25 19:52:00,34.0,29.0,29.98,ESE,120,0.0,3.0,82,0.00,,,0.00,,2013-02-26 01:52:00,
2013-02-25 20:01:00,34.0,29.0,29.98,SSE,148,0.0,3.0,82,0.00,,,0.00,,2013-02-26 02:01:00,
2013-02-25 20:11:00,34.0,29.0,29.98,SSE,148,0.0,3.0,82,0.00,,,0.00,,2013-02-26 02:11:00,
2013-02-25 20:21:00,33.0,28.0,29.99,ESE,122,0.0,2.0,83,0.00,,,0.00,,2013-02-26 02:21:00,
2013-02-25 20:32:00,33.0,28.0,29.99,ESE,122,0.0,2.0,83,0.00,,,0.00,,2013-02-26 02:32:00,
2013-02-25 20:42:00,33.0,28.0,29.99,ESE,122,0.0,2.0,83,0.00,,,0.00,,2013-02-26 02:42:00,
2013-02-25 20:52:00,34.0,29.0,29.99,SE,124,0.0,3.0,81,0.00,,,0.00,,2013-02-26 02:52:00,
2013-02-25 21:02:00,34.0,29.0,29.99,South,191,0.0,5.0,81,0.00,,,0.00,,2013-02-26 03:02:00,
2013-02-25 21:11:00,34.0,29.0,29.99,South,191,0.0,5.0,81,0.00,,,0.00,,2013-02-26 03:11:00,
2013-02-25 21:21:00,34.0,29.0,29.99,SSE,150,0.0,3.0,83,0.00,,,0.00,,2013-02-26 03:21:00,
2013-02-25 21:32:00,33.0,28.0,29.99,SSE,148,2.0,5.0,83,0.00,,,0.00,,2013-02-26 03:32:00,
2013-02-25 21:42:00,33.0,28.0,29.99,SSE,148,2.0,5.0,83,0.00,,,0.00,,2013-02-26 03:42:00,
2013-02-25 21:52:00,34.0,29.0,29.99,SE,140,1.0,5.0,82,0.00,,,0.00,,2013-02-26 03:52:00,
2013-02-25 22:01:00,35.0,28.0,29.99,SE,130,3.0,12.0,75,0.00,,,0.00,,2013-02-26 04:01:00,
2013-02-25 22:11:00,35.0,28.0,29.99,SE,130,3.0,12.0,75,0.00,,,0.00,,2013-02-26 04:11:00,
2013-02-25 22:21:00,36.0,29.0,29.99,SE,140,4.0,10.0,74,0.00,,,0.00,,2013-02-26 04:21:00,
2013-02-25 22:32:00,36.0,28.0,29.97,NE,43,7.0,13.0,72,0.00,,,0.00,,2013-02-26 04:32:00,
2013-02-25 22:42:00,36.0,28.0,29.97,NE,43,7.0,13.0,72,0.00,,,0.00,,2013-02-26 04:42:00,
2013-02-25 22:52:00,35.0,27.0,29.97,SSE,147,5.0,12.0,73,0.00,,,0.00,,2013-02-26 04:52:00,
2013-02-25 23:01:00,35.0,27.0,29.95,ESE,121,7.0,18.0,72,0.00,,,0.00,,2013-02-26 05:01:00,
2013-02-25 23:12:00,35.0,27.0,29.95,ESE,121,7.0,18.0,72,0.00,,,0.00,,2013-02-26 05:12:00,
2013-02-25 23:21:00,35.0,27.0,29.93,SE,124,6.0,13.0,73,0.00,,,0.00,,2013-02-26 05:21:00,
2013-02-25 23:31:00,35.0,27.0,29.92,SE,144,6.0,14.0,73,0.00,,,0.00,,2013-02-26 05:31:00,
2013-02-25 23:43:00,35.0,27.0,29.92,SE,144,6.0,14.0,73,0.00,,,0.00,,2013-02-26 05:43:00,
2013-02-25 23:52:00,35.0,28.0,29.92,ESE,105,6.0,15.0,74,0.00,,,0.00,,2013-02-26 05:52:00,